Flag for U.S.A. Weather past 2 weeks in Decatur, Illinois, U.S.A.

Now
85 °F

Passing clouds.


Feels Like: 92 °F
Forecast: 66 / 86 °F
Wind: 14 mph from South

Location: Decatur Airport

Current Time: Jul 6, 2015 at 3:31:36 PM

Latest Report: Jul 6, 2015 at 2:54 PM


Visibility: 10 mi

Pressure: 29.93 "Hg

Humidity: 70%

Dew point: 74 °F

Location of DecaturLocation

Historic Weather in Decatur — Graph

°F

Decatur temperature yesterday

Maximum temperature yesterday: 82 °F (at 2:54 PM)
Minimum temperature yesterday: 58 °F (at 5:54 AM)
Average temperature yesterday: 72 °F

Past Weeks' High & Low Weather Summary

 TemperatureHumidityPressure
High88 °F (Jun 22, 3:54 PM)96% (Jun 26, 6:01 AM)30.22 "Hg (Jun 26, 6:01 AM)
Low58 °F (Jun 28, 1:54 AM)44% (Jun 23, 2:54 PM)29.73 "Hg (Jun 29, 3:54 AM)
Average72 °F78%29.94 "Hg
* Reported Jun 21 1:54 PM — Jul 6 1:54 PM, Decatur, Weather by CustomWeather, © 2015

Note: Actual official high and low records may vary slightly from our data, if they occured in-between our weather recording intervals... More about our weather records

Advertising

Decatur weather history for previous 24 hours

 ConditionsComfort  
Time TempWeatherWind HumidityBarometerVisibility
1:54 PM
Mon, Jul 6
85 °FBroken clouds.15 mph70%29.94 "Hg10 mi
12:54 PM85 °FPartly sunny.15 mph68%29.95 "Hg10 mi
11:54 AM84 °FSunny.14 mph70%29.98 "Hg10 mi
10:54 AM82 °FSunny.13 mph72%30.00 "Hg10 mi
9:54 AM80 °FSunny.15 mph74%30.00 "Hg10 mi
8:54 AM77 °FSunny.13 mph77%30.01 "Hg6 mi
7:54 AM73 °FSunny.12 mph79%30.01 "Hg5 mi
6:54 AM70 °FHaze.12 mph84%30.01 "Hg5 mi
5:54 AM68 °FFog.6 mph87%30.01 "Hg4 mi
4:54 AM64 °FFog.5 mph90%30.00 "Hg5 mi
3:54 AM63 °FFog.3 mph90%30.00 "Hg6 mi
2:54 AM68 °FClear.3 mph84%30.00 "Hg7 mi
1:54 AM69 °FClear.6 mph84%30.00 "Hg7 mi
12:54 AM70 °FClear.6 mph81%30.01 "Hg7 mi
11:54 PM
Sun, Jul 5
69 °FClear.6 mph84%30.01 "Hg7 mi
10:54 PM67 °FFog.5 mph90%30.02 "Hg6 mi
9:54 PM68 °FFog.No wind90%30.03 "Hg6 mi
8:54 PM72 °FSunny.3 mph81%30.02 "Hg6 mi
7:54 PM77 °FSunny.3 mph69%30.01 "Hg7 mi
6:54 PM80 °FSunny.6 mph60%30.01 "Hg8 mi
5:54 PM82 °FSunny.8 mph56%30.02 "Hg8 mi
4:54 PM82 °FPassing clouds.8 mph55%30.03 "Hg9 mi
3:54 PM82 °FPartly sunny.10 mph55%30.04 "Hg9 mi
Weather by CustomWeather, © 2015

See weather overviewHow to use our weather pages